Abilene, TX

6:04 AM CDT on June 23, 2017 (GMT -0500)
Abilene Regional

Weather History for KABI - March, 2012

Change the Weather History Date:

Saturday, March 24, 2012

  Actual Average Record
Temperature  
Mean Temperature 67 °F 59 °F  
Max Temperature 83 °F 71 °F 93 °F (1988)
Min Temperature 50 °F 46 °F 26 °F (1974)
Degree Days  
Heating Degree Days 0 8  
Month to date heating degree days 157 249  
Since 1 July heating degree days 2067 2382  
Cooling Degree Days 2 1  
Month to date cooling degree days 28 19  
Year to date cooling degree days 34 24  
Growing Degree Days 16 (Base 50)    
Moisture  
Dew Point 55 °F    
Average Humidity 71    
Maximum Humidity 96    
Minimum Humidity 45    
Precipitation  
Precipitation 0.00 in 0.06 in 2.75 in (1943)
Month to date precipitation 1.21 1.36  
Year to date precipitation 5.68 3.74  
Sea Level Pressure  
Sea Level Pressure 29.96 in    
Wind  
Wind Speed 8 mph (SE)    
Max Wind Speed 15 mph    
Max Gust Speed 17 mph    
Visibility 10 miles    
Events      
T = Trace of Precipitation, MM = Missing Value Source: NWS Daily Summary

Daily Weather History Graph

Daily Weather History Graph

Search for Another Location

Airport or City:

Trip Planner

Search our weather history database for the weather conditions in past years. The results will help you decide how hot, cold, wet, or windy it might be!

Date:

Astronomy

Mar. 24, 2012 Rise Set
Actual Time 7:36 AM CDT 7:53 PM CDT
Civil Twilight 7:12 AM CDT 8:18 PM CDT
Nautical Twilight 6:43 AM CDT 8:46 PM CDT
Astronomical Twilight 6:14 AM CDT 9:15 PM CDT
Moon 8:26 AM CDT (3/24) 10:03 PM CDT (3/24)
Length of Visible Light 13h 06m
Length of Day
12h 16m
Waxing Crescent, 4% of the Moon is Illuminated
Mar 24
Waxing Crescent
Mar 30
First Quarter
Apr 6
Full
Apr 13
Last Quarter
Apr 21
New

Hourly Weather History & Observations

Time (CDT) Temp. Heat Index Dew Point Humidity Pressure Visibility Wind Dir Wind Speed Gust Speed Precip Events Conditions
12:52 AM 55.0 °F - 48.0 °F 77% 29.97 in 10.0 mi ESE 8.1 mph - N/A   Clear
1:52 AM 55.0 °F - 48.9 °F 80% 29.97 in 10.0 mi ESE 6.9 mph - N/A   Clear
2:52 AM 54.0 °F - 48.9 °F 83% 29.96 in 10.0 mi SSE 5.8 mph - N/A   Clear
3:52 AM 54.0 °F - 48.9 °F 83% 29.95 in 10.0 mi SE 5.8 mph - N/A   Clear
4:52 AM 52.0 °F - 48.9 °F 89% 29.94 in 10.0 mi SE 8.1 mph - N/A   Clear
5:52 AM 52.0 °F - 50.0 °F 93% 29.95 in 10.0 mi South 6.9 mph - N/A   Clear
6:52 AM 50.0 °F - 48.0 °F 93% 29.97 in 10.0 mi SSE 9.2 mph - N/A   Clear
7:52 AM 50.0 °F - 48.9 °F 96% 30.00 in 10.0 mi SE 10.4 mph - N/A   Clear
8:52 AM 55.9 °F - 52.0 °F 87% 30.02 in 10.0 mi SE 6.9 mph - N/A   Clear
9:52 AM 63.0 °F - 55.0 °F 75% 30.02 in 10.0 mi SE 9.2 mph - N/A   Clear
10:52 AM 68.0 °F - 55.9 °F 65% 30.03 in 10.0 mi SE 9.2 mph - N/A   Clear
11:52 AM 71.1 °F - 57.0 °F 61% 30.02 in 10.0 mi ESE 8.1 mph - N/A   Clear
12:52 PM 75.0 °F - 59.0 °F 57% 30.00 in 10.0 mi SE 9.2 mph - N/A   Clear
1:52 PM 78.1 °F - 57.9 °F 50% 29.97 in 10.0 mi SE 9.2 mph - N/A   Clear
2:52 PM 80.1 °F 80.6 °F 57.9 °F 47% 29.95 in 10.0 mi East 6.9 mph - N/A   Clear
3:52 PM 81.0 °F 81.6 °F 60.1 °F 49% 29.93 in 10.0 mi SE 4.6 mph - N/A   Clear
4:52 PM 82.0 °F 82.7 °F 61.0 °F 49% 29.92 in 10.0 mi ESE 11.5 mph - N/A   Clear
5:52 PM 82.0 °F 82.7 °F 61.0 °F 49% 29.91 in 10.0 mi ESE 13.8 mph - N/A   Clear
6:52 PM 79.0 °F - 61.0 °F 54% 29.92 in 10.0 mi SE 10.4 mph - N/A   Clear
7:52 PM 71.1 °F - 60.1 °F 68% 29.94 in 10.0 mi SSE 8.1 mph - N/A   Clear
8:52 PM 66.0 °F - 57.9 °F 75% 29.95 in 10.0 mi SE 9.2 mph - N/A   Clear
9:52 PM 64.9 °F - 59.0 °F 81% 29.95 in 10.0 mi SE 8.1 mph - N/A   Clear
10:52 PM 63.0 °F - 57.9 °F 84% 29.96 in 10.0 mi SSE 8.1 mph - N/A   Clear
11:52 PM 66.0 °F - 61.0 °F 84% 29.96 in 10.0 mi SSE 11.5 mph - N/A   Clear